Weather History for McCook, NE

Change the Weather History Date:

Friday, March 29, 2013

  Actual Average Record
Temperature  
Mean Temperature 52 °F 43 °F  
Max Temperature 72 °F 59 °F 92 °F (1943)
Min Temperature 32 °F 28 °F 10 °F (1987)
Degree Days  
Heating Degree Days 12    
Growing Degree Days 2 (Base 50)    
Moisture  
Dew Point 37 °F    
Average Humidity 58    
Maximum Humidity 85    
Minimum Humidity 32    
Precipitation  
Precipitation T in 0.05 in 1.61 in (2005)
Month to date precipitation 0.26 1.25  
Year to date precipitation 1.43 2.38  
Sea Level Pressure  
Sea Level Pressure 30.06 in    
Wind  
Wind Speed 8 mph (South)    
Max Wind Speed 22 mph    
Max Gust Speed 29 mph    
Visibility 10 miles    
Events      
T = Trace of Precipitation, MM = Missing Value Source: NWS Daily Summary

Daily Weather History Graph

Daily Weather History Graph

Search for Another Location

Airport:

Trip Planner

Search our weather history database for the weather conditions in past years. The results will help you decide how hot, cold, wet, or windy it might be!

Date:

Astronomy

Mar. 29, 2013 Rise Set
Actual Time 7:30 AM CDT 8:04 PM CDT
Civil Twilight 7:03 AM CDT 8:31 PM CDT
Nautical Twilight 6:31 AM CDT 9:03 PM CDT
Astronomical Twilight 5:58 AM CDT 9:36 PM CDT
Moon 11:06 PM CDT (3/29) 8:40 AM CDT (3/29)
Length of Visible Light 13h 28m
Length of Day
12h 33m
Waning Gibbous, 93% of the Moon is Illuminated
Mar 29
Waning Gibbous
Apr 2
Last Quarter
Apr 10
New
Apr 18
First Quarter
Apr 25
Full

Hourly Weather History & Observations

Time (CDT) Temp. Windchill Dew Point Humidity Pressure Visibility Wind Dir Wind Speed Gust Speed Precip Events Conditions
12:53 AM 44.1 °F 38.6 °F 30.9 °F 60% 30.14 in 10.0 mi SE 10.4 mph - N/A   Clear
1:53 AM 42.1 °F 40.2 °F 30.9 °F 65% 30.13 in 10.0 mi South 3.5 mph - N/A   Clear
2:53 AM 41.0 °F 37.1 °F 30.9 °F 67% 30.13 in 10.0 mi SSW 5.8 mph - N/A   Clear
3:53 AM 41.0 °F 38.0 °F 30.9 °F 67% 30.12 in 10.0 mi SSE 4.6 mph - N/A   Clear
4:53 AM 37.0 °F - 30.0 °F 76% 30.12 in 10.0 mi Calm Calm - N/A   Clear
5:53 AM 35.1 °F - 28.9 °F 78% 30.13 in 10.0 mi Calm Calm - N/A   Clear
6:53 AM 36.0 °F 33.3 °F 30.0 °F 79% 30.14 in 10.0 mi SW 3.5 mph - N/A   Clear
7:53 AM 33.1 °F - 28.9 °F 85% 30.17 in 8.0 mi Calm Calm - N/A   Clear
8:53 AM 37.0 °F - 32.0 °F 82% 30.17 in 8.0 mi Calm Calm - N/A   Clear
9:53 AM 45.0 °F - 33.1 °F 63% 30.16 in 10.0 mi Calm Calm - N/A   Clear
10:53 AM 53.1 °F - 39.0 °F 59% 30.14 in 10.0 mi Calm Calm - N/A   Overcast
11:53 AM 57.0 °F - 41.0 °F 55% 30.13 in 10.0 mi Calm Calm - N/A   Mostly Cloudy
12:53 PM 66.9 °F - 43.0 °F 42% 30.10 in 10.0 mi South 17.3 mph 23.0 mph N/A   Partly Cloudy
1:53 PM 64.9 °F - 39.9 °F 40% 30.05 in 10.0 mi SSE 16.1 mph - N/A   Mostly Cloudy
2:53 PM 68.0 °F - 39.9 °F 36% 30.02 in 10.0 mi SSE 21.9 mph 27.6 mph N/A   Partly Cloudy
3:53 PM 70.0 °F - 41.0 °F 35% 30.00 in 10.0 mi South 17.3 mph - N/A   Partly Cloudy
4:53 PM 72.0 °F - 41.0 °F 33% 29.98 in 10.0 mi SSE 20.7 mph 28.8 mph N/A   Partly Cloudy
5:53 PM 70.0 °F - 39.0 °F 32% 29.98 in 10.0 mi South 19.6 mph 26.5 mph N/A   Clear
6:53 PM 66.9 °F - 39.0 °F 36% 29.94 in 10.0 mi South 15.0 mph 24.2 mph N/A   Clear
7:53 PM 64.9 °F - 39.9 °F 40% 29.96 in 10.0 mi SSW 11.5 mph - N/A   Mostly Cloudy
8:53 PM 61.0 °F - 43.0 °F 52% 29.96 in 10.0 mi SW 13.8 mph - 0.00 in   Clear
9:53 PM 57.9 °F - 44.1 °F 60% 29.97 in 10.0 mi SSW 10.4 mph - N/A   Clear
10:53 PM 55.9 °F - 46.0 °F 69% 29.95 in 10.0 mi SW 11.5 mph - N/A   Clear
11:53 PM 53.1 °F - 45.0 °F 74% 29.96 in 10.0 mi WSW 11.5 mph - N/A   Clear